Location: Bacharowice
(49.9333°N, 19.5833°E)
Time: 12:25:36
(UTC+00:00)

USA 305 - Pass Details

Date: 25 September 2021
Orbit: 547 x 588 km, 54.0° (Epoch: 03 October)

Event Time Altitude Azimuth Distance (km) Brightness Sun altitude
Rises 17:09:53 0° 282° (WNW) 2,736 8.9 -6.8°
Reaches altitude 10° 17:12:10 10° 288° (WNW) 1,847 7.1 -7.1°
Maximum altitude 17:16:15 48° 4° (N) 742 3.5 -7.8°
Drops below altitude 10° 17:20:22 10° 80° (E) 1,871 4.9 -8.4°
Enters shadow 17:20:26 10° 80° (E) 1,894 5.0 -8.5°
